TimeEDT,TemperatureF,Dew PointF,Humidity,Sea Level PressureIn,VisibilityMPH,Wind Direction,Wind SpeedMPH,Gust SpeedMPH,PrecipitationIn,Events,Conditions,WindDirDegrees,DateUTC
12:56 AM,44.1,39.9,85,30.16,9.0,Calm,Calm,-,N/A,,Clear,0,2013-03-31 04:56:00
1:56 AM,46.0,39.9,79,30.14,7.0,Calm,Calm,-,N/A,,Partly Cloudy,0,2013-03-31 05:56:00
2:56 AM,48.0,41.0,77,30.12,6.0,Calm,Calm,-,N/A,,Haze,0,2013-03-31 06:56:00
3:56 AM,46.9,41.0,80,30.10,7.0,Calm,Calm,-,N/A,,Scattered Clouds,0,2013-03-31 07:56:00
4:56 AM,48.0,42.1,80,30.07,7.0,Calm,Calm,-,N/A,,Mostly Cloudy,0,2013-03-31 08:56:00
5:56 AM,48.9,44.1,83,30.06,8.0,SE,3.5,-,N/A,,Scattered Clouds,140,2013-03-31 09:56:00
6:56 AM,55.9,46.0,69,30.06,10.0,South,4.6,-,0.00,Rain,Light Rain,190,2013-03-31 10:56:00
7:56 AM,55.0,46.9,74,30.05,7.0,Calm,Calm,-,0.00,,Overcast,0,2013-03-31 11:56:00
8:56 AM,55.9,50.0,80,30.04,9.0,East,3.5,-,N/A,,Overcast,100,2013-03-31 12:56:00
9:56 AM,59.0,51.1,75,30.04,9.0,SSW,4.6,-,N/A,,Overcast,200,2013-03-31 13:56:00
10:56 AM,64.0,52.0,65,30.02,10.0,South,8.1,-,N/A,,Mostly Cloudy,190,2013-03-31 14:56:00
11:56 AM,68.0,52.0,56,30.00,10.0,SSW,5.8,-,N/A,,Mostly Cloudy,210,2013-03-31 15:56:00
12:56 PM,69.1,52.0,54,29.97,10.0,South,11.5,-,N/A,,Scattered Clouds,170,2013-03-31 16:56:00
1:18 PM,69.8,51.8,53,29.94,1.5,SE,11.5,-,N/A,,Haze,140,2013-03-31 17:18:00
1:33 PM,68.0,51.8,56,29.93,9.0,SSE,11.5,20.7,N/A,,Scattered Clouds,150,2013-03-31 17:33:00
1:56 PM,72.0,51.1,48,29.92,10.0,SSW,12.7,20.7,N/A,,Mostly Cloudy,210,2013-03-31 17:56:00
2:56 PM,69.1,51.1,53,29.89,10.0,South,18.4,23.0,N/A,,Mostly Cloudy,180,2013-03-31 18:56:00
3:56 PM,68.0,51.1,55,29.88,10.0,SSW,8.1,21.9,N/A,,Mostly Cloudy,200,2013-03-31 19:56:00
4:56 PM,69.1,52.0,54,29.86,10.0,South,10.4,23.0,N/A,,Mostly Cloudy,190,2013-03-31 20:56:00
5:56 PM,66.9,52.0,59,29.88,10.0,South,9.2,20.7,N/A,,Partly Cloudy,190,2013-03-31 21:56:00
6:56 PM,64.9,53.1,65,29.88,10.0,SSW,10.4,18.4,N/A,,Clear,200,2013-03-31 22:56:00
7:56 PM,62.1,52.0,70,29.89,10.0,SSW,8.1,-,N/A,,Clear,200,2013-03-31 23:56:00
8:56 PM,61.0,52.0,72,29.88,10.0,SSW,9.2,-,N/A,,Clear,200,2013-04-01 00:56:00
9:56 PM,64.0,51.1,63,29.91,10.0,SW,10.4,19.6,N/A,,Mostly Cloudy,220,2013-04-01 01:56:00
10:56 PM,60.1,54.0,80,29.91,4.0,South,5.8,-,0.05,Rain,Light Rain,170,2013-04-01 02:56:00
11:56 PM,59.0,54.0,83,29.90,10.0,SW,6.9,-,0.00,,Overcast,230,2013-04-01 03:56:00